カタログに戻る

FENGYUN 1C DEB

運用中PO
NORAD 31877·DEBRIS·🇨🇳 China

打ち上げ May 10, 1999 から Taiyuan Satellite Launch Center

Loading…

次のパス (今後24時間)

TLE

最新Source: Space-Track

元期: Sep 14, 2026, 14:27 UTC

1 31877U 99025CKC 26257.60240232  .00012254  00000-0  71327-3 0  9999
2 31877  99.0032  18.3069 0091828  95.7891 265.3811 15.08663766 31913

AllMySatでFENGYUN 1C DEBをリアルタイム追跡

Download on the App Store